FW3795 Weather Reports


time (UTC)temp
C
wind
direction
speed
KPH
gust
KPH
rain 1hr
cm
rain 24hr
cm
rain mn
cm
humidity
%
barometer
mb
20260906220034 20 345 12.9 20.9 0.00 0.00 0.00 60 1018.3
20260906214534 20 330 6.4 17.7 0.00 0.00 0.00 61 1018.3
20260906213032 20 299 12.9 22.5 0.00 0.00 0.00 62 1018.4
20260906211532 20 29 12.9 24.1 0.00 0.00 0.00 60 1018.4
20260906210031 20 327 14.5 20.9 0.00 0.00 0.00 60 1018.2
20260906204532 20 348 16.1 24.1 0.00 0.00 0.00 60 1018.1
20260906203029 20 39 9.7 24.1 0.00 0.00 0.00 56 1018.1
20260906201527 20 343 14.5 22.5 0.00 0.00 0.00 56 1018.0
20260906200026 21 343 14.5 24.1 0.00 0.00 0.00 55 1017.8
20260906194524 21 314 16.1 24.1 0.00 0.00 0.00 59 1017.9
20260906193022 21 360 14.5 22.5 0.00 0.00 0.00 60 1017.9
20260906191520 22 304 9.7 22.5 0.00 0.00 0.00 60 1017.7
20260906190118 21 328 16.1 30.6 0.00 0.00 0.00 58 1017.6
20260906184516 21 337 14.5 30.6 0.00 0.00 0.00 58 1017.8
20260906183016 21 307 17.7 25.7 0.00 0.00 0.00 57 1017.7
20260906181510 21 40 12.9 25.7 0.00 0.00 0.00 60 1017.6
20260906180008 21 44 11.3 19.3 0.00 0.00 0.00 63 1017.8
20260906174507 20 331 12.9 19.3 0.00 0.00 0.00 67 1017.9
20260906173003 20 339 11.3 20.9 0.00 0.00 0.00 67 1017.6
20260906171502 20 36 11.3 17.7 0.00 0.00 0.00 67 1017.9
20260906170110 20 68 6.4 17.7 0.00 0.00 0.00 65 1017.8
20260906164558 20 65 6.4 16.1 0.00 0.00 0.00 68 1017.7
20260906163057 20 34 14.5 22.5 0.00 0.00 0.00 66 1017.7
20260906161554 20 61 4.8 17.7 0.00 0.00 0.00 68 1017.7
20260906160052 20 49 8.0 16.1 0.00 0.00 0.00 69 1017.7
20260906154550 19 59 9.7 24.1 0.00 0.00 0.00 69 1017.8
20260906153048 19 45 12.9 19.3 0.00 0.00 0.00 69 1017.9
20260906151552 19 67 14.5 22.5 0.00 0.00 0.00 70 1017.9
20260906150045 19 37 9.7 22.5 0.00 0.00 0.00 73 1018.0
20260906144544 19 63 14.5 25.7 0.00 0.00 0.00 72 1017.9
20260906143036 18 51 12.9 24.1 0.00 0.00 0.00 77 1017.7
20260906141532 18 65 16.1 24.1 0.00 0.00 0.00 81 1017.7
20260906140030 17 51 11.3 20.9 0.00 0.00 0.00 84 1017.7
20260906134527 17 69 14.5 24.1 0.00 0.00 0.00 86 1017.3
20260906133025 17 24 16.1 22.5 0.00 0.00 0.00 87 1017.3
20260906131528 17 56 9.7 24.1 0.00 0.00 0.00 89 1017.3
20260906130021 17 38 14.5 25.7 0.00 0.00 0.00 89 1017.4
20260906124518 17 49 11.3 19.3 0.00 0.03 0.00 90 1017.1
20260906123021 17 33 12.9 22.5 0.00 0.03 0.00 92 1017.0
20260906121513 17 40 4.8 11.3 0.00 0.03 0.00 93 1016.9
20260906120011 17 348 6.4 14.5 0.00 0.03 0.00 94 1016.6
20260906114508 16 355 6.4 16.1 0.00 0.03 0.00 94 1016.5
20260906113004 16 13 3.2 12.9 0.00 0.03 0.00 95 1016.3
20260906111501 16 334 9.7 16.1 0.00 0.03 0.00 95 1016.1
20260906110059 16 320 6.4 12.9 0.00 0.03 0.00 95 1016.1
20260906104556 15 311 4.8 9.7 0.00 0.03 0.00 95 1016.0
20260906103058 15 302 4.8 9.7 0.00 0.03 0.00 95 1016.1
20260906101552 15 240 0.0 4.8 0.00 0.03 0.00 95 1015.8
20260906100049 14 186 0.0 0.0 0.00 0.03 0.00 94 1015.5
20260906094548 14 198 0.0 0.0 0.00 0.03 0.00 94 1015.3
20260906093053 14 198 0.0 0.0 0.00 0.03 0.00 93 1015.4
20260906091545 14 198 0.0 0.0 0.00 0.03 0.00 93 1015.4
20260906090042 14 198 1.6 6.4 0.00 0.03 0.00 93 1015.0
20260906084541 14 188 0.0 3.2 0.00 0.03 0.00 93 1014.9
20260906083040 14 188 0.0 0.0 0.00 0.03 0.00 93 1014.6
20260906081540 14 188 0.0 0.0 0.00 0.03 0.00 93 1014.6
20260906080037 15 188 0.0 3.2 0.00 0.03 0.00 93 1014.6
20260906074537 15 197 3.2 6.4 0.00 0.03 0.00 92 1014.5
20260906073036 15 200 0.0 4.8 0.00 0.03 0.00 91 1014.5
20260906071534 15 199 0.0 0.0 0.00 0.03 0.00 91 1014.5
20260906070032 15 199 0.0 0.0 0.00 0.03 0.00 91 1014.5
20260906064536 15 199 0.0 4.8 0.00 0.03 0.00 91 1014.6
20260906063029 15 196 4.8 6.4 0.00 0.03 0.00 91 1014.8
20260906061528 15 183 3.2 6.4 0.00 0.03 0.00 91 1014.8
20260906060024 15 183 1.6 8.0 0.00 0.03 0.00 90 1014.7
20260906054533 15 279 0.0 0.0 0.00 0.05 0.00 90 1014.9
20260906053021 15 32 0.0 0.0 0.00 0.05 0.00 89 1014.8
20260906051520 15 37 0.0 0.0 0.00 0.05 0.00 89 1014.8
20260906050017 15 37 0.0 0.0 0.00 0.05 0.00 88 1014.7
20260906044516 15 37 0.0 0.0 0.00 0.05 0.00 88 1014.7
20260906043022 15 37 0.0 0.0 0.00 0.05 0.00 88 1014.7
20260906041514 15 37 0.0 0.0 0.00 0.05 0.00 87 1014.6
20260906040013 15 37 0.0 0.0 0.00 0.05 0.00 87 1014.6
20260906034511 15 37 0.0 0.0 0.00 0.05 0.05 87 1014.6
20260906033010 15 37 0.0 0.0 0.00 0.05 0.05 86 1014.5
20260906031510 15 37 0.0 0.0 0.00 0.05 0.05 85 1014.5
20260906030006 15 37 0.0 0.0 0.00 0.05 0.05 85 1014.5
20260906024507 16 37 0.0 0.0 0.00 0.05 0.05 84 1014.4
20260906023004 16 37 0.0 0.0 0.00 0.05 0.05 82 1014.3
20260906021505 16 37 0.0 0.0 0.00 0.05 0.05 82 1014.3
20260906020003 17 37 0.0 3.2 0.00 0.08 0.05 83 1014.4
20260906014505 17 37 1.6 4.8 0.00 0.08 0.05 82 1014.2
20260906013000 17 35 0.0 1.6 0.00 0.08 0.05 80 1014.1
20260906011606 17 35 0.0 6.4 0.00 0.08 0.05 81 1014.1
20260906010059 17 46 3.2 8.0 0.00 0.08 0.05 80 1014.0
20260906004558 17 41 3.2 8.0 0.00 0.08 0.05 80 1013.9
20260906003058 17 36 0.0 4.8 0.00 0.08 0.05 80 1014.0
20260906001557 17 339 0.0 0.0 0.00 0.08 0.05 79 1013.8
20260906000056 18 336 0.0 0.0 0.00 0.08 0.05 76 1013.6
20260905234556 19 336 0.0 6.4 0.00 0.10 0.05 75 1013.7
20260905233102 20 328 1.6 8.0 0.00 0.10 0.05 73 1013.7
20260905231555 20 338 3.2 12.9 0.00 0.10 0.05 71 1013.8
20260905230053 21 347 6.4 12.9 0.00 0.10 0.05 69 1013.5
20260905224554 21 10 6.4 19.3 0.00 0.10 0.05 68 1013.7
20260905223054 21 360 8.0 17.7 0.00 0.10 0.05 67 1013.4
20260905221552 22 19 6.4 16.1 0.00 0.10 0.05 65 1013.5